Погода в Полтавке

Украина / Запорожская область     47°43′00″N   36°28′38″E
темп.,
°C
ветер,
м/с
пор.,
м/с
влажн.,
%
обл.,
%
осадки,
мм/ч
давл.,
гПа
погр.,
м
22 апреля, чт
чт2200:00+8ююз48945 0.1 1019187
03:00+7юз37935 0.1 1020144
06:00+6юз34935 0.0 102189
09:00+12ююз34685 0.0 1022539
12:00+16юз445026 0.3 10221703
15:00+16юз4446100 0.4 10211876
18:00+13ююз5966100 0.5 1021303
21:00+11ююз4874100 0.5 1022246
23 апреля, пт
пт2300:00+10ююз378198 0.0 1022197
03:00+7юз36915 0.0 1022132
06:00+7ююз34893 0.0 102280
09:00+13ююз56642 0.0 1022695
12:00+17юз684517 0.0 10201995
15:00+17ююз884370 0.0 10192118
18:00+15ююз78545 0.0 10171251
21:00+11ю61271100 0.0 1017441
24 апреля, сб
сб2400:00+10юз51179100 0.3 1016388
03:00+8ююз4108892 0.3 1015265
06:00+7сз5790100 0.6 1016449
09:00+9сз56664 1.7 10171000
12:00+12з7104266 0.0 10172329
15:00+13з91138100 0.0 10172634
18:00+10з9135512 0.1 10181705
21:00+6сз49583 0.1 1021338
25 апреля, вс
вс2500:00+4з37620 0.0 1022132
03:00+3з36640 0.0 1022114
06:00+2з367013 0.0 1023126
09:00+8зсз35503 0.0 10221055
12:00+11зсз44375 0.0 10221980
15:00+12зсз3334100 0.0 10202017
18:00+12зсз1235100 0.0 10201949
21:00+8юз2249100 0.0 102020
26 апреля, пн
пн2600:00+5юз36630 0.0 102090
03:00+4юз3669100 0.0 1019109
06:00+4юз357120 0.0 101895
09:00+10зюз465798 0.0 1018682
12:00+12зюз8954100 0.0 10171794
15:00+9зсз576697 0.2 10181302
18:00+11зюз4844100 0.0 10162144
21:00+7зюз485564 0.0 1018152